< < Back
Terminal Aerodrome Forecast


Current Version              Previous Versions:   1  2  3  4  5  6  7  8  9  

Terminal Aerodrome Forecast

302
FTUS44 KOHX 061727
TAFBNA
TAF
KBNA 061727Z 0618/0718 21007KT P6SM SCT030
     FM070100 20005KT P6SM BKN150
     FM071000 19005KT 5SM BR BKN100
     FM071300 19006KT P6SM BKN100=

Latest METAR

086
SAUS70 KWBC 070656
MTRBNA
METAR KBNA 070653Z VRB04KT 10SM FEW090 24/23 A3007 RMK AO2 SLP176
T02440228


USA.gov is the U.S. government's official web portal to all federal, state and local government web resources and services.